Location: Bakov nad Jizerou
(50.4784°N, 14.9394°E)
Time: 23:23:18
(UTC+00:00)

ALOS 2 - Pass Details

Date: 16 June 2021
Orbit: 630 x 632 km, 97.9° (Epoch: 23 July)

Event Time Altitude Azimuth Distance (km) Brightness Sun altitude
Exits shadow 22:11:53 26° 157° (SSE) 1,241 3.5 -15.3°
Maximum altitude 22:14:18 78° 74° (ENE) 652 2.6 -15.4°
Drops below altitude 10° 22:18:43 10° 348° (NNW) 2,027 6.6 -15.5°
Sets 22:20:56 0° 348° (NNW) 2,940 7.9 -15.6°
